EDW86 LSZH-FACT

Flight info

Callsign EDW86
Flight time N/A
Altitude 34000
Route VEBIT T53 GERSA DCT SOSON DCT ODINA DCT PIDAD/N0486F350 DCT TALEP DCT VAREK DCT ERPIN DCT ETOIL DCT CIRTA UM2 CSO UM998 BOD/N0486F370 UM998 ENBUT DCT EBIMU UG727 ININA/N0487F390 UG727 BZ DCT KSA UT943 IMVEX/N0482F400 UT943 UNLOK/N0481F390 UT943 OMATA/N0481F410 UT943 VEDRY/N0479F400 UN185 OKLOK UQ23 DUMDO DCT ERDAS ERDAS1C
Aircraft A359/H-SABDE2E3GHIJ1J2J3J4J5LM1OP2RVWXYZ/LB1D1

Departure

Time N/A
Airport Zürich Airport (LSZH)

Arrival

Time 2026-05-05 06:36
Airport Cape Town International Airport (FACT)
Time Latitude Longitude Altitude Speed Heading
2026-05-05 05:33 -26.85866 18.19146 41082 ft 520 kts 180°
2026-05-05 05:33 -26.93028 18.20353 41080 ft 521 kts 179°
2026-05-05 05:34 -27.00209 18.21565 41081 ft 522 kts 179°
2026-05-05 05:34 -27.07390 18.22777 40993 ft 522 kts 179°
2026-05-05 05:35 -27.11001 18.23388 40765 ft 522 kts 179°
2026-05-05 05:35 -27.14548 18.23990 40529 ft 523 kts 179°
2026-05-05 05:35 -27.18149 18.24601 40295 ft 524 kts 179°
2026-05-05 05:35 -27.21761 18.25214 40127 ft 524 kts 179°
2026-05-05 05:36 -27.28992 18.26441 40089 ft 526 kts 179°
2026-05-05 05:36 -27.36226 18.27672 40095 ft 526 kts 179°
2026-05-05 05:37 -27.43481 18.28908 40151 ft 526 kts 179°
2026-05-05 05:37 -27.50687 18.30136 40099 ft 526 kts 178°
2026-05-05 05:38 -27.57936 18.30940 40105 ft 520 kts 184°
2026-05-05 05:38 -27.65183 18.31382 40105 ft 520 kts 184°
2026-05-05 05:39 -27.72412 18.31871 40147 ft 521 kts 183°
2026-05-05 05:39 -27.79636 18.32439 40113 ft 521 kts 183°
2026-05-05 05:40 -27.86820 18.33034 40107 ft 521 kts 182°
2026-05-05 05:40 -27.94059 18.33630 40108 ft 520 kts 183°
2026-05-05 05:41 -28.01288 18.34223 40133 ft 520 kts 182°
2026-05-05 05:41 -28.08496 18.34816 40108 ft 519 kts 182°
2026-05-05 05:42 -28.15705 18.35808 40110 ft 524 kts 176°
2026-05-05 05:42 -28.22894 18.37255 40108 ft 525 kts 175°
2026-05-05 05:43 -28.30048 18.38765 40115 ft 525 kts 175°
2026-05-05 05:43 -28.37225 18.40286 40104 ft 524 kts 175°
2026-05-05 05:44 -28.43186 18.41538 40104 ft 523 kts 175°
2026-05-05 05:44 -28.50363 18.43048 40096 ft 524 kts 175°
2026-05-05 05:45 -28.58755 18.44813 40107 ft 530 kts 175°
2026-05-05 05:45 -28.64792 18.46087 40103 ft 530 kts 175°
2026-05-05 05:46 -28.72050 18.47623 40097 ft 530 kts 175°
2026-05-05 05:46 -28.79311 18.49159 40098 ft 530 kts 175°
2026-05-05 05:47 -28.86549 18.50692 40101 ft 528 kts 175°
2026-05-05 05:47 -28.93786 18.52229 40100 ft 528 kts 175°
2026-05-05 05:48 -29.01004 18.53761 40097 ft 528 kts 175°
2026-05-05 05:48 -29.08181 18.55287 40118 ft 528 kts 175°
2026-05-05 05:49 -29.15395 18.56823 40103 ft 526 kts 174°
2026-05-05 05:49 -29.22592 18.58359 40103 ft 526 kts 174°
2026-05-05 05:50 -29.29789 18.59896 40100 ft 525 kts 174°
2026-05-05 05:50 -29.36979 18.61433 40116 ft 525 kts 174°
2026-05-05 05:51 -29.44115 18.62962 40098 ft 524 kts 174°
2026-05-05 05:51 -29.51294 18.64502 40094 ft 524 kts 174°
2026-05-05 05:52 -29.58463 18.66042 40098 ft 524 kts 174°
2026-05-05 05:52 -29.65640 18.67586 40100 ft 523 kts 174°
2026-05-05 05:53 -29.72801 18.69129 40094 ft 522 kts 174°
2026-05-05 05:53 -29.79946 18.70671 40094 ft 522 kts 174°
2026-05-05 05:54 -29.87051 18.72206 40096 ft 522 kts 174°
2026-05-05 05:54 -29.94203 18.73753 40097 ft 522 kts 174°
2026-05-05 05:55 -30.01336 18.75299 40094 ft 522 kts 174°
2026-05-05 05:55 -30.08486 18.76851 40095 ft 522 kts 174°
2026-05-05 05:56 -30.15582 18.78394 40111 ft 523 kts 173°
2026-05-05 05:56 -30.22779 18.79960 40097 ft 526 kts 173°
2026-05-05 05:57 -30.29944 18.81520 40094 ft 527 kts 173°
2026-05-05 05:57 -30.37158 18.83096 40091 ft 526 kts 173°
2026-05-05 05:58 -30.44359 18.84670 40091 ft 525 kts 173°
2026-05-05 05:58 -30.51521 18.86240 40088 ft 524 kts 173°
2026-05-05 05:59 -30.58686 18.87816 40083 ft 523 kts 173°
2026-05-05 05:59 -30.65843 18.89387 40083 ft 523 kts 173°
2026-05-05 06:00 -30.72987 18.90953 40083 ft 522 kts 173°
2026-05-05 06:00 -30.80118 18.92523 40078 ft 521 kts 173°
2026-05-05 06:01 -30.87254 18.94098 40072 ft 521 kts 173°
2026-05-05 06:01 -30.94333 18.95662 40084 ft 521 kts 173°
2026-05-05 06:02 -31.01437 18.97235 40070 ft 519 kts 173°
2026-05-05 06:02 -31.08542 18.98810 40073 ft 519 kts 173°
2026-05-05 06:03 -31.15639 19.00386 40077 ft 519 kts 173°
2026-05-05 06:03 -31.22729 19.01962 40074 ft 518 kts 172°
2026-05-05 06:04 -31.29798 19.03535 40079 ft 517 kts 172°
2026-05-05 06:04 -31.36829 19.05103 40072 ft 517 kts 172°
2026-05-05 06:05 -31.43899 19.06681 40090 ft 517 kts 172°
2026-05-05 06:05 -31.50948 19.08258 40068 ft 515 kts 172°
2026-05-05 06:06 -31.57997 19.09838 40071 ft 514 kts 172°
2026-05-05 06:06 -31.64991 19.11407 40069 ft 514 kts 172°
2026-05-05 06:07 -31.72025 19.12987 40066 ft 516 kts 172°
2026-05-05 06:07 -31.79090 19.14576 40067 ft 517 kts 172°
2026-05-05 06:08 -31.86156 19.16169 40065 ft 517 kts 172°
2026-05-05 06:08 -31.93222 19.17764 40071 ft 517 kts 172°
2026-05-05 06:09 -32.00262 19.19357 40065 ft 516 kts 172°
2026-05-05 06:09 -32.07311 19.20953 40065 ft 515 kts 172°
2026-05-05 06:10 -32.14352 19.22550 40063 ft 515 kts 172°
2026-05-05 06:10 -32.21388 19.24150 40065 ft 515 kts 171°
2026-05-05 06:11 -32.28414 19.25745 40065 ft 513 kts 171°
2026-05-05 06:11 -32.35420 19.27339 40065 ft 513 kts 171°
2026-05-05 06:12 -32.42433 19.28940 40064 ft 513 kts 171°
2026-05-05 06:12 -32.49437 19.30541 40063 ft 512 kts 171°
2026-05-05 06:13 -32.56417 19.32139 39809 ft 507 kts 171°
2026-05-05 06:13 -32.59878 19.32933 39062 ft 510 kts 171°
2026-05-05 06:13 -32.63341 19.33725 38146 ft 515 kts 171°
2026-05-05 06:14 -32.66866 19.34532 37240 ft 519 kts 171°
2026-05-05 06:14 -32.70161 19.35288 36497 ft 521 kts 171°
2026-05-05 06:14 -32.73709 19.36103 35729 ft 521 kts 171°
2026-05-05 06:14 -32.77289 19.36927 34766 ft 526 kts 171°
2026-05-05 06:15 -32.80899 19.37759 33771 ft 530 kts 170°
2026-05-05 06:15 -32.84542 19.38506 32697 ft 532 kts 173°
2026-05-05 06:15 -32.88218 19.39038 31899 ft 529 kts 175°
2026-05-05 06:15 -32.91851 19.39470 31266 ft 523 kts 176°
2026-05-05 06:16 -32.95466 19.39881 30575 ft 520 kts 176°
2026-05-05 06:16 -32.99051 19.40303 29880 ft 516 kts 175°
2026-05-05 06:16 -33.02616 19.40747 29117 ft 512 kts 175°
2026-05-05 06:16 -33.06143 19.41208 28407 ft 508 kts 175°
2026-05-05 06:17 -33.09637 19.41679 27744 ft 503 kts 175°
2026-05-05 06:17 -33.13098 19.42154 27097 ft 498 kts 174°
2026-05-05 06:17 -33.16536 19.42629 26477 ft 494 kts 174°
2026-05-05 06:17 -33.19923 19.43050 26187 ft 484 kts 179°
2026-05-05 06:18 -33.23173 19.42721 25863 ft 470 kts 194°
2026-05-05 06:18 -33.26194 19.41398 25384 ft 458 kts 211°
2026-05-05 06:18 -33.28725 19.39180 24888 ft 447 kts 227°
2026-05-05 06:18 -33.30649 19.36317 24404 ft 437 kts 238°
2026-05-05 06:19 -33.32368 19.33331 23915 ft 433 kts 238°
2026-05-05 06:19 -33.34097 19.30407 23392 ft 429 kts 237°
2026-05-05 06:19 -33.35846 19.27547 22880 ft 423 kts 236°
2026-05-05 06:19 -33.37599 19.24742 22396 ft 417 kts 235°
2026-05-05 06:20 -33.39338 19.21988 21905 ft 413 kts 235°
2026-05-05 06:20 -33.41083 19.19269 21383 ft 411 kts 233°
2026-05-05 06:20 -33.42943 19.16753 20931 ft 407 kts 229°
2026-05-05 06:20 -33.44892 19.14265 20440 ft 401 kts 228°
2026-05-05 06:21 -33.46776 19.11875 19958 ft 397 kts 228°
2026-05-05 06:21 -33.48656 19.09486 19478 ft 392 kts 227°
2026-05-05 06:21 -33.50512 19.07125 18999 ft 387 kts 226°
2026-05-05 06:21 -33.52351 19.04784 18528 ft 383 kts 226°
2026-05-05 06:22 -33.54165 19.02474 18014 ft 378 kts 226°
2026-05-05 06:22 -33.55960 19.00186 17537 ft 373 kts 226°
2026-05-05 06:22 -33.57721 18.97939 17074 ft 367 kts 226°
2026-05-05 06:22 -33.59457 18.95725 16623 ft 362 kts 226°
2026-05-05 06:23 -33.61148 18.93565 16167 ft 357 kts 226°
2026-05-05 06:23 -33.62837 18.91405 15742 ft 352 kts 226°
2026-05-05 06:23 -33.64500 18.89277 15319 ft 347 kts 226°
2026-05-05 06:23 -33.66140 18.87176 14892 ft 343 kts 226°
2026-05-05 06:24 -33.67766 18.85094 14458 ft 340 kts 226°
2026-05-05 06:24 -33.69378 18.83030 14028 ft 338 kts 226°
2026-05-05 06:24 -33.70982 18.80980 13588 ft 336 kts 226°
2026-05-05 06:24 -33.72572 18.78937 13147 ft 333 kts 226°
2026-05-05 06:25 -33.74126 18.76939 12751 ft 329 kts 226°
2026-05-05 06:25 -33.75681 18.74940 12333 ft 326 kts 226°
2026-05-05 06:25 -33.77223 18.72963 11920 ft 322 kts 226°
2026-05-05 06:25 -33.78909 18.71225 11517 ft 318 kts 211°
2026-05-05 06:26 -33.80944 18.70258 11137 ft 315 kts 190°
2026-05-05 06:26 -33.83126 18.70244 10728 ft 313 kts 170°
2026-05-05 06:26 -33.85247 18.70843 10323 ft 311 kts 165°
2026-05-05 06:26 -33.87298 18.71521 10154 ft 299 kts 165°
2026-05-05 06:27 -33.89268 18.72169 9939 ft 287 kts 165°
2026-05-05 06:27 -33.93037 18.73385 8524 ft 277 kts 166°
2026-05-05 06:27 -33.94893 18.73980 7786 ft 275 kts 166°
2026-05-05 06:28 -33.96742 18.74571 7073 ft 274 kts 166°
2026-05-05 06:28 -33.98552 18.75150 6385 ft 272 kts 166°
2026-05-05 06:28 -34.00376 18.75732 5637 ft 271 kts 166°
2026-05-05 06:28 -34.02190 18.76312 4948 ft 268 kts 166°
2026-05-05 06:29 -34.03954 18.76876 4566 ft 255 kts 166°
2026-05-05 06:29 -34.05664 18.77422 4203 ft 252 kts 167°
2026-05-05 06:29 -34.07342 18.77959 3973 ft 247 kts 166°
2026-05-05 06:29 -34.08999 18.78488 3844 ft 246 kts 166°
2026-05-05 06:30 -34.10661 18.78986 3710 ft 246 kts 171°
2026-05-05 06:30 -34.12355 18.78963 3579 ft 243 kts 196°
2026-05-05 06:30 -34.13809 18.78019 3455 ft 238 kts 225°
2026-05-05 06:30 -34.14708 18.76384 3334 ft 234 kts 251°
2026-05-05 06:31 -34.15112 18.74490 3218 ft 234 kts 259°
2026-05-05 06:31 -34.15418 18.72561 3088 ft 234 kts 260°
2026-05-05 06:31 -34.15722 18.70637 2999 ft 233 kts 259°
2026-05-05 06:31 -34.15861 18.68705 2980 ft 230 kts 277°
2026-05-05 06:32 -34.15207 18.67072 2985 ft 210 kts 312°
2026-05-05 06:32 -34.14118 18.66010 2984 ft 195 kts 326°
2026-05-05 06:32 -34.12934 18.65373 3018 ft 178 kts 343°
2026-05-05 06:32 -34.11744 18.65030 2886 ft 175 kts 343°
2026-05-05 06:33 -34.10598 18.64660 2615 ft 172 kts 342°
2026-05-05 06:33 -34.09466 18.64291 2351 ft 164 kts 343°
2026-05-05 06:33 -34.08399 18.63954 2130 ft 154 kts 343°
2026-05-05 06:33 -34.07379 18.63628 1916 ft 148 kts 343°
2026-05-05 06:34 -34.06404 18.63317 1728 ft 141 kts 343°
2026-05-05 06:34 -34.05781 18.63119 1600 ft 138 kts 343°
2026-05-05 06:34 -34.04871 18.62828 1412 ft 133 kts 345°
2026-05-05 06:34 -34.03978 18.62545 1225 ft 133 kts 345°
2026-05-05 06:35 -34.03079 18.62248 1045 ft 134 kts 345°
2026-05-05 06:35 -34.02184 18.61922 849 ft 135 kts 345°
2026-05-05 06:35 -34.01270 18.61634 730 ft 136 kts 348°
2026-05-05 06:35 -34.00348 18.61365 537 ft 136 kts 347°
2026-05-05 06:36 -33.99431 18.61077 352 ft 135 kts 348°
2026-05-05 06:36 -33.98526 18.60798 203 ft 134 kts 348°
2026-05-05 06:36 -33.97724 18.60553 160 ft 91 kts 346°
2026-05-05 06:36 -33.97335 18.60434 159 ft 34 kts 345°
2026-05-05 06:37 -33.97162 18.60352 161 ft 9 kts 320°
2026-05-05 06:37 -33.97125 18.60286 161 ft 11 kts 297°
2026-05-05 06:37 -33.97095 18.60194 161 ft 13 kts 285°
2026-05-05 06:37 -33.97077 18.60104 160 ft 8 kts 285°
2026-05-05 06:38 -33.97058 18.60027 160 ft 11 kts 287°
2026-05-05 06:38 -33.97029 18.59957 160 ft 10 kts 313°
2026-05-05 06:38 -33.96964 18.59921 160 ft 11 kts 345°
2026-05-05 06:38 -33.96882 18.59895 160 ft 13 kts 345°
2026-05-05 06:39 -33.96786 18.59863 160 ft 12 kts 344°
2026-05-05 06:39 -33.96727 18.59844 160 ft 8 kts 345°
2026-05-05 06:39 -33.96710 18.59838 160 ft 0 kts 345°
2026-05-05 06:39 -33.96693 18.59823 160 ft 4 kts 308°
2026-05-05 06:40 -33.96696 18.59797 162 ft 4 kts 252°
2026-05-05 06:40 -33.96704 18.59763 160 ft 3 kts 254°
2026-05-05 06:40 -33.96708 18.59745 160 ft 1 kts 255°
2026-05-05 06:40 -33.96708 18.59741 160 ft 0 kts 255°